Ballina Observation History
Time Wind Speed Temp Pressure Rel. Hum Rain
11/05:03am CALM 0-1 kts 16.3°c 1014.8 hPa 100% n/a
11/05:00am N 1-3 kts 16.1°c 1014.8 hPa 100% n/a
11/04:30am CALM 0 kts 16.9°c 1014.5 hPa n/a n/a
11/04:22am CALM 0 kts 17.0°c 1014.5 hPa n/a n/a
11/04:00am N 4 kts 17.9°c 1014.4 hPa n/a n/a
11/03:52am N 4-5 kts 17.1°c 1014.4 hPa n/a n/a
11/03:40am CALM 0 kts 16.9°c 1014.5 hPa n/a n/a
11/03:36am CALM 0 kts 17.1°c 1014.6 hPa n/a n/a
11/03:30am CALM 0 kts 17.5°c 1014.6 hPa n/a n/a
11/03:00am CALM 0 kts 17.7°c 1014.9 hPa n/a n/a
11/02:30am CALM 0 kts 18.0°c 1015.1 hPa n/a n/a
11/02:02am CALM 0 kts 18.1°c 1015.1 hPa 100% n/a
11/02:00am CALM 0 kts 18.1°c 1015.1 hPa 100% n/a
11/01:30am CALM 0 kts 19.1°c 1015.4 hPa 99% n/a
11/01:00am N 1-3 kts 19.8°c 1015.5 hPa 96% n/a
11/12:30am NNE 5-6 kts 20.3°c 1015.6 hPa 96% n/a
11/12:00am N 4-6 kts 20.4°c 1015.9 hPa 96% n/a
Time Wind Speed Temp Pressure Rel. Hum Rain
10/11:30pm NNE 5-7 kts 21.0°c 1016.0 hPa 94% n/a
10/11:00pm NNE 7-9 kts 21.1°c 1016.1 hPa 92% n/a
10/10:30pm NNE 6-8 kts 21.2°c 1016.3 hPa 90% n/a
10/10:00pm NNE 6-8 kts 21.3°c 1016.2 hPa 88% n/a
10/09:30pm NNE 6-9 kts 21.8°c 1016.1 hPa 90% n/a
10/09:00pm NNE 8-10 kts 22.1°c 1015.7 hPa 90% n/a
10/08:30pm NNE 7-9 kts 22.1°c 1015.7 hPa 89% n/a
10/08:00pm NNE 8-11 kts 22.7°c 1015.1 hPa 92% n/a
10/07:30pm NNE 9-13 kts 23.0°c 1014.8 hPa 82% n/a
10/07:00pm NNE 9-13 kts 23.6°c 1014.5 hPa 88% n/a
10/06:30pm NNE 13-18 kts 24.5°c 1014.1 hPa 79% n/a
10/06:00pm NNE 13-18 kts 25.2°c 1013.9 hPa 76% n/a
10/05:30pm NNE 13-19 kts 24.9°c 1013.8 hPa 80% n/a
10/05:00pm NNE 14-19 kts 25.3°c 1013.6 hPa 78% 0.0mm
10/04:30pm NE 15-19 kts 24.9°c 1013.7 hPa 84% 0.0mm
10/04:00pm NE 14-19 kts 25.9°c 1014.0 hPa 79% 0.0mm
10/03:30pm NE 15-20 kts 27.0°c 1014.2 hPa 80% 0.0mm
10/03:00pm NE 16-21 kts 26.0°c 1014.4 hPa 71% 0.0mm
10/02:30pm NE 14-18 kts 26.4°c 1014.7 hPa 70% 0.0mm
10/02:00pm NE 15-18 kts 26.5°c 1015.0 hPa 67% 0.0mm
10/01:30pm ENE 15-19 kts 27.2°c 1015.3 hPa 69% 0.0mm
10/01:00pm ENE 13-18 kts 26.7°c 1015.4 hPa 64% 0.0mm
10/12:30pm ENE 13-16 kts 26.4°c 1015.6 hPa 66% 0.0mm
10/12:00pm ENE 14-18 kts 26.3°c 1015.5 hPa 67% 0.0mm
10/11:30am NE 10-14 kts 26.6°c 1016.0 hPa 67% 0.0mm
10/11:00am NE 12-16 kts 26.1°c 1016.1 hPa 67% 0.0mm
10/10:30am ENE 10-14 kts 26.0°c 1016.4 hPa 88% 0.0mm
10/10:00am E 5-7 kts 24.8°c 1016.6 hPa 80% 0.0mm
10/09:30am NE 1-3 kts 24.3°c 1016.8 hPa 77% 0.0mm
10/09:00am WSW 2-4 kts 23.4°c 1016.9 hPa 79% 0.0mm
10/08:30am WSW 3-4 kts 22.8°c 1016.8 hPa 83% 0.0mm
10/08:00am WSW 3-4 kts 21.8°c 1016.7 hPa 88% 0.0mm
10/07:30am W 4-5 kts 20.3°c 1016.6 hPa 92% 0.0mm
10/07:00am CALM 0 kts 18.8°c 1016.2 hPa 98% 0.0mm
10/06:30am CALM 0 kts 17.6°c 1016.0 hPa 98% 0.0mm
10/06:16am CALM 0 kts 16.9°c 1015.9 hPa 98% 0.0mm
10/06:00am CALM 0 kts 16.7°c 1015.9 hPa 98% 0.0mm
10/05:30am W 1-4 kts 16.7°c 1015.9 hPa 98% 0.0mm
10/05:27am W 2-4 kts 17.2°c 1015.8 hPa 98% 0.0mm
10/05:00am W 3-4 kts 17.4°c 1015.6 hPa 97% 0.0mm
10/04:30am W 5 kts 17.5°c 1015.5 hPa 95% 0.0mm
10/04:00am CALM 0-3 kts 18.4°c 1015.5 hPa 94% 0.0mm
10/03:30am N 5-6 kts 19.1°c 1015.4 hPa 95% 0.0mm
10/03:00am NNW 4-6 kts 18.9°c 1015.6 hPa 96% 0.0mm
10/02:30am CALM 0 kts 18.1°c 1016.3 hPa 94% 0.0mm
10/02:00am WSW 2-5 kts 18.5°c 1016.9 hPa 95% 0.0mm
10/01:30am CALM 0 kts 18.1°c 1017.3 hPa 92% 0.0mm
10/01:00am WSW 3-5 kts 18.6°c 1017.9 hPa 91% 0.0mm
10/12:30am CALM 0-5 kts 19.7°c 1018.3 hPa 84% 0.0mm
10/12:00am N 4-5 kts 21.3°c 1018.1 hPa 83% 0.0mm
Time Wind Speed Temp Pressure Rel. Hum Rain
09/11:30pm NNE 4-7 kts 21.8°c 1018.1 hPa 80% 0.0mm
09/11:00pm NE 7-9 kts 21.8°c 1018.0 hPa 79% 0.0mm
09/10:30pm NE 7-10 kts 21.8°c 1018.0 hPa 80% 0.0mm
09/10:00pm NE 8-11 kts 22.2°c 1017.8 hPa 79% 0.0mm
09/09:30pm NE 9-13 kts 22.1°c 1017.5 hPa 79% 0.0mm
09/09:00pm NE 9-14 kts 21.9°c 1017.5 hPa 79% 0.0mm
09/08:30pm NE 9-13 kts 21.7°c 1017.4 hPa 80% 0.0mm
09/08:00pm NE 9-11 kts 21.8°c 1017.4 hPa 80% 0.0mm
09/07:30pm NE 9-13 kts 22.3°c 1017.4 hPa 79% 0.0mm
09/07:00pm ENE 10-13 kts 22.8°c 1017.4 hPa 75% 0.0mm
09/06:30pm ENE 12-16 kts 23.2°c 1017.3 hPa 75% 0.0mm
09/06:00pm ENE 12-15 kts 24.3°c 1017.1 hPa 68% 0.0mm
09/05:30pm ENE 11-15 kts 24.8°c 1017.0 hPa 66% 0.0mm
09/05:00pm NE 11-15 kts 24.2°c 1017.1 hPa 65% 0.0mm
09/04:30pm ENE 11-14 kts 24.4°c 1017.3 hPa 66% 0.0mm
09/04:00pm E 12-17 kts 25.5°c 1017.5 hPa 62% 0.0mm
09/03:30pm ENE 12-17 kts 25.6°c 1017.5 hPa 66% 0.0mm
09/03:00pm ENE 13-17 kts 24.9°c 1017.8 hPa 64% 0.0mm
09/02:30pm ENE 12-17 kts 25.5°c 1017.9 hPa 65% 0.0mm
09/02:00pm ENE 12-20 kts 25.5°c 1018.1 hPa 65% 0.0mm
09/01:30pm NE 13-18 kts 25.6°c 1018.4 hPa 65% 0.0mm
09/01:00pm ENE 12-16 kts 25.2°c 1018.5 hPa 65% 0.0mm
09/12:30pm ENE 10-16 kts 25.2°c 1018.9 hPa 62% 0.0mm
09/12:00pm ENE 13-17 kts 25.3°c 1019.1 hPa 64% 0.0mm
09/11:30am ENE 12-15 kts 25.4°c 1019.2 hPa 62% 0.0mm
09/11:00am ENE 12-18 kts 25.9°c 1019.3 hPa 65% 0.0mm
09/10:30am ENE 10-14 kts 25.2°c 1019.3 hPa 66% 0.0mm
09/10:00am ENE 12-15 kts 25.5°c 1019.4 hPa 69% 0.0mm
09/09:30am ENE 10-13 kts 24.9°c 1019.5 hPa 68% 0.0mm
09/09:00am ENE 11-16 kts 25.0°c 1019.5 hPa 68% 0.0mm
09/08:30am ENE 10-13 kts 24.0°c 1019.5 hPa 66% 0.0mm
09/08:00am ENE 7-10 kts 23.4°c 1019.5 hPa 68% 0.0mm
09/07:30am ENE 6-9 kts 22.9°c 1019.4 hPa 69% 0.0mm
09/07:00am ENE 7-10 kts 22.1°c 1019.2 hPa 73% 0.0mm
09/06:30am N 3-7 kts 21.0°c 1018.9 hPa 81% 0.0mm
09/06:00am CALM 0 kts 19.9°c 1018.9 hPa 88% 0.0mm
09/05:30am CALM 0 kts 19.6°c 1018.8 hPa 88% 0.0mm
09/05:00am CALM 0 kts 19.6°c 1018.7 hPa 88% 0.0mm
09/04:30am CALM 0 kts 19.7°c 1018.7 hPa 87% 0.0mm
09/04:00am W 1-3 kts 19.7°c 1018.8 hPa 85% 0.0mm
09/03:30am W 4-5 kts 19.4°c 1019.0 hPa 86% 0.0mm
09/03:00am S 2-4 kts 19.9°c 1019.1 hPa 85% 0.0mm
09/02:30am E 4-5 kts 20.8°c 1019.2 hPa 76% 0.0mm
09/02:00am ESE 5-7 kts 20.5°c 1019.4 hPa 78% 0.0mm
09/01:30am CALM 0 kts 19.9°c 1020.1 hPa 82% 0.0mm
09/01:00am ESE 4-5 kts 20.7°c 1020.6 hPa 76% 0.0mm
09/12:30am E 3-5 kts 20.9°c 1020.9 hPa 74% 0.0mm
09/12:00am E 5-6 kts 21.3°c 1021.4 hPa 72% 0.0mm